User: anonymous   Login
Location: Anciles
(42.5833°N, 0.5167°E)
Time: 09:45:31
(UTC+00:00)
Language:

Meteor 2-9 Rocket - Orbit

View from above orbital plane
View from above orbital plane
View from above satellite
View from above satellite

Ground track
Ground track

The orbit data is extracted from the following two-line orbital elements,

1 13719U 82116B   20055.52776801 +.00000060 +00000-0 +23797-4 0  9995
2 13719 081.2538 118.0271 0072505 070.9778 040.7115 14.14649222919256
Epoch (UTC): 24 February 2020 12:39:59
Eccentricity: 0.0072505
inclination: 81.2538°
perigee height: 791 km
apogee height: 896 km
right ascension of ascending node: 118.0271°
argument of perigee: 70.9778°
revolutions per day: 14.14649222
mean anomaly at epoch: 40.7115°
orbit number at epoch: 91925

The dashed part of the orbit path shows where the satellite is in the earth's shadow,  

DLR